星链-34048 (STARLINK-34048)

导读

STARLINK-34048卫星由美国发射,是SpaceX星链星座的组网卫星,发射于2025年5月4日。该卫星延续星链项目低轨通信布局,延续星链模块化、批量制造发射模式,依托低轨轨道优势,为全球提供高速低延迟互联网覆盖,服务偏远地区通信、海上及航空移动网络等场景,推进星链全球通信星座的组网进程。

基本信息
目录编号:
63816
目录名称:
STARLINK-34048
国际标识:
2025-092N
轨道中心:
EARTH
卫星名称:
星链-34048
卫星全名:
星链-34048 (STARLINK-34048)
卫星状态:
在轨 (已飞行406 天)
发射日期:
2025-05-04 UTC
国别 :
美国 (US)
星等 :
--
轨道信息
数据来源 国际轨道数据
星历时间: 2026-06-14T03:48:39+0800
6小时前
查看轨道信息
半长轴: 6861.115km
偏心率: 0.0000973
轨道倾角: 43.012°
近地点辐角 69.699°
升交点赤经 349.943°
平近点角 290.397°
近地点: 482.31km
远地点: 483.646km
周期: 94.265分钟
每日圈数: 15.276038
详细信息
固有亮度:
5
最大亮度:
2.5
卫星平台:
Starlink V1.0
覆盖范围:
全球
运营商:
太空探索技术公司
运营商所在国:
美国
制造商(研发单位):
太空探索技术公司
制造商所在国:
美国
使用方式:
暂无
卫星简介
Starlink 计划是 SpaceX 推出的全球卫星互联网项目,通过发射低轨道卫星,为全球尤其是偏远地区提供高速、低延迟的互联网服务。自 2019 年起,Starlink 已部署数千颗卫星,旨在缩小全球数字鸿沟,推动互联网普及。该项目还为军事、航空等行业提供通信支持,带来广泛经济效益。
2D轨道图
3D轨道图
轨道高度分析图
轨道倾角分析图
轨道综合分析图
查看轨道综合分析图